Voltar ao catálogo

STARLINK-33777

AtivoComunicaçõesVLEO
NORAD 63843·PAYLOAD·🇺🇸 United States

Lançado May 7, 2025 de Cape Canaveral Space Force Station

Loading…

Próximas Passagens (próximas 24 horas)

TLE

AtualizadoSource: CelesTrak SupGP

Época: Sep 15, 2026, 03:30 UTC

1 63843C 25093H   26258.14631944 -.00016647  00000+0 -60289-3 0  2589
2 63843  43.0016  87.6884 0001472 267.9630 326.0959 15.27591150    19

Acompanhe STARLINK-33777 em tempo real com AllMySat

Download on the App Store